Regional Weather Roundup
Issued by NWS Kansas City/Pleasant Hill, MO

Home | Current Version | Previous Version | Graphics & Text | Print | Product List | Glossary Off
Versions: 1 2 3 4 5 6 7 8 9 10 11 12 13 14 15 16 17 18 19 20 21 22 23 24 25 26 27 28 29 30 31 32 33 34 35 36 37 38 39 40 41 42 43 44 45 46 47 48 49 50

000
ASUS43 KEAX 280211
RWREAX

WEATHER ROUNDUP FOR EASTERN KANSAS AND NORTHWEST MISSOURI
NATIONAL WEATHER SERVICE KANSAS CITY/PLEASANT HILL MO
900 PM CDT WED AUG 27 2014

KSZ040-057-103>105-MOZ028-029-037-043-280300-
...KANSAS CITY METROPOLITAN AREA...

CITY           SKY/WX    TMP DP  RH WIND       PRES   REMARKS
K.C. INTL      CLOUDY    79  72  79 E7        30.05R
K.C. DOWNTOWN  CLOUDY    82  72  71 E9        30.03R
LEES SUMMIT    MOCLDY    78  72  81 E6        30.06R
OLATHE - IXD   CLOUDY    80  73  79 E9        30.04S
OLATHE - OJC   CLOUDY    80  73  79 E12       30.04R
LAWRENCE       CLOUDY    82  74  76 E3        30.03R

$$

MOZ001>008-011>017-020>025-030>033-038>040-044>046-053-054-280300-
...NORTHERN AND CENTRAL MISSOURI...

CITY           SKY/WX    TMP DP  RH WIND       PRES   REMARKS
ST. JOSEPH     CLOUDY    76  71  85 E7        30.04S
MOSBY          CLOUDY    79  70  73 E5        30.05R
WHITEMAN AFB   PTCLDY    77  55  47 E2        30.04S
CLINTON        PTCLDY    79  75  89 CALM      30.04S
SEDALIA        PTCLDY    79  73  82 E5        30.05S
WARSAW         NOT AVBL
MARSHALL       PTCLDY    79  75  89 NE3       30.06R
CHILLICOTHE      N/A     74  71  91 NE3       30.08R
MOBERLY        MOCLDY    73  68  83 CALM      30.08R
KIRKSVILLE     MOCLDY    73  71  93 NE6       30.09S

$$

MOZ041-047>049-056>058-063>065-088>090-097-280300-
...EASTERN AND SOUTHERN MISSOURI...

CITY           SKY/WX    TMP DP  RH WIND       PRES   REMARKS
ST. LOUIS INTL LGT RAIN  75  69  81 E3        30.07F
SPIRIT OF STL  LGT RAIN  72  70  94 CALM      30.04F
COLUMBIA       PTCLDY    75  69  81 E6        30.07S
JEFFERSON CITY PTCLDY    74  68  81 SE3       30.05S
MEXICO         MOCLDY   N/A N/A N/A CALM      30.07S
HANNIBAL       CLOUDY    79  72  78 CALM      30.07S
ROLLA          MOCLDY    73  68  84 E8        30.06S
LEBANON        CLEAR     79  68  69 E7        30.08R
OSAGE BEACH    CLEAR     79  68  69 E5        30.06R
SPRINGFIELD    CLOUDY    81  65  58 E9        30.05R
BRANSON        MOCLDY    84  64  51 SE6       30.06R
NEVADA         PTCLDY    75  66  73 CALM      30.04R
JOPLIN         PTCLDY    81  67  62 E8        30.03R
WEST PLAINS    MOCLDY    75  68  78 NE5       30.09R

$$

IAZ060-094-KSZ022-034>040-054-083-096-NEZ052-066-093-280300-
...KANSAS...SOUTHEAST NEBRASKA AND IOWA...

CITY           SKY/WX    TMP DP  RH WIND       PRES   REMARKS
TOPEKA         CLOUDY    81  73  76 E7        30.01S
MANHATTAN      CLOUDY    82  71  69 E8        30.00R
EMPORIA        MOCLDY    82  70  66 E9        30.00S
CHANUTE        PTCLDY    84  68  58 E8        30.01R
WICHITA        PTCLDY    84  64  50 SE7       29.99R
OMAHA          CLOUDY    73  69  87 SE9       30.05R
LINCOLN        CLOUDY    73  71  93 NE3       30.04S
FALLS CITY     CLOUDY    75  72  90 E7        30.03S
LAMONI         CLOUDY    72  70  93 E3        30.09R
DES MOINES     CLOUDY    74  67  78 CALM      30.09R

$$



USA.gov is the U.S. government's official web portal to all federal, state and local government web resources and services.